Location: Unspecified
(40.7945°N, 0.0000°E)
Time: 22:19:25
(UTC+00:00)

AIST 2D - Pass Details

Date: 20 July 2019
Orbit: 457 x 471 km, 97.2° (Epoch: 24 August)

Event Time Altitude Azimuth Distance (km) Brightness Sun altitude
Rises 22:41:05 0° 14° (NNE) 2,513 ? -25.5°
Reaches altitude 10° 22:43:09 10° 18° (NNE) 1,634 ? -25.7°
Enters shadow 22:44:56 28° 27° (NNE) 923 ? -25.8°
